Hourly Weather Lugi

Today, 15 May, Saturday

Time Temperature Precipitation Wind Pressure Humidity
00:00 +8°C° 0.2 mm 3 mps 749 mmHg 94%
01:00 +7°C° 0 mm 4 mps 749 mmHg 95%
02:00 +7°C° 0.1 mm 3 mps 749 mmHg 95%
03:00 +7°C° 0.1 mm 3 mps 749 mmHg 95%
04:00 +5°C° 0.1 mm 3 mps 749 mmHg 95%
05:00 +7°C° 0 mm 3 mps 749 mmHg 90%
06:00 +9°C° 0 mm 2 mps 750 mmHg 85%
07:00 +10°C° 0 mm 2 mps 750 mmHg 81%
08:00 +13°C° 0 mm 2 mps 750 mmHg 74%
09:00 +15°C° 0 mm 2 mps 750 mmHg 68%
10:00 +17°C° 0 mm 2 mps 749 mmHg 61%
11:00 +17°C° 0.4 mm 3 mps 749 mmHg 60%
12:00 +18°C° 0.4 mm 3 mps 749 mmHg 59%
13:00 +18°C° 0.4 mm 4 mps 749 mmHg 59%
14:00 +18°C° 0.3 mm 3 mps 748 mmHg 60%
15:00 +18°C° 0.3 mm 3 mps 748 mmHg 61%
16:00 +18°C° 0.3 mm 3 mps 748 mmHg 63%
17:00 +16°C° 0.5 mm 3 mps 748 mmHg 70%
18:00 +14°C° 0.5 mm 3 mps 748 mmHg 76%
19:00 +13°C° 0.5 mm 3 mps 748 mmHg 83%
20:00 +12°C° 0.2 mm 3 mps 748 mmHg 86%
21:00 +11°C° 0.2 mm 3 mps 748 mmHg 89%
22:00 +11°C° 0.2 mm 3 mps 748 mmHg 92%
23:00 +10°C° 0.1 mm 3 mps 748 mmHg 93%

Tomorrow, 16 May, Sunday

Time Temperature Precipitation Wind Pressure Humidity
00:00 +10°C° 0.1 mm 3 mps 747 mmHg 93%
01:00 +10°C° 0.1 mm 3 mps 747 mmHg 94%
02:00 +9°C° 0.1 mm 3 mps 747 mmHg 95%
03:00 +9°C° 0.1 mm 2 mps 747 mmHg 96%
04:00 +9°C° 0.1 mm 2 mps 747 mmHg 96%
05:00 +9°C° 0.2 mm 3 mps 747 mmHg 95%
06:00 +10°C° 0.2 mm 3 mps 747 mmHg 93%
07:00 +10°C° 0.2 mm 3 mps 748 mmHg 92%
08:00 +12°C° 0 mm 3 mps 748 mmHg 82%
09:00 +13°C° 0 mm 4 mps 748 mmHg 73%
10:00 +14°C° 0 mm 4 mps 747 mmHg 64%
11:00 +15°C° 0.2 mm 4 mps 747 mmHg 64%
12:00 +15°C° 0.2 mm 4 mps 747 mmHg 64%
13:00 +15°C° 0.2 mm 4 mps 747 mmHg 64%
14:00 +15°C° 0.1 mm 4 mps 747 mmHg 61%
15:00 +17°C° 0.1 mm 4 mps 747 mmHg 58%
16:00 +17°C° 0.1 mm 4 mps 746 mmHg 55%
17:00 +16°C° 0 mm 3 mps 746 mmHg 60%
18:00 +15°C° 0 mm 2 mps 746 mmHg 65%
19:00 +14°C° 0 mm 1 mps 746 mmHg 70%
20:00 +13°C° 0 mm 1 mps 746 mmHg 75%
21:00 +12°C° 0 mm 2 mps 746 mmHg 79%
22:00 +9°C° 0 mm 2 mps 746 mmHg 84%
23:00 +9°C° 0 mm 2 mps 746 mmHg 86%

Day after tomorrow, 17 May, Monday

Time Temperature Precipitation Wind Pressure Humidity
00:00 +8°C° 0 mm 2 mps 746 mmHg 89%
01:00 +8°C° 0 mm 2 mps 746 mmHg 92%
02:00 +8°C° 0 mm 2 mps 746 mmHg 93%
03:00 +8°C° 0 mm 2 mps 746 mmHg 94%
04:00 +8°C° 0 mm 2 mps 746 mmHg 95%
05:00 +9°C° 0.2 mm 2 mps 746 mmHg 94%
06:00 +10°C° 0.2 mm 2 mps 746 mmHg 92%
07:00 +10°C° 0.2 mm 2 mps 746 mmHg 91%
08:00 +13°C° 0.2 mm 2 mps 746 mmHg 85%
09:00 +13°C° 0.2 mm 3 mps 746 mmHg 78%
10:00 +14°C° 0.2 mm 3 mps 746 mmHg 71%
11:00 +16°C° 0.3 mm 3 mps 746 mmHg 66%
12:00 +17°C° 0.3 mm 4 mps 746 mmHg 61%
13:00 +17°C° 0.3 mm 4 mps 746 mmHg 57%
14:00 +17°C° 0.2 mm 4 mps 746 mmHg 60%
15:00 +17°C° 0.2 mm 4 mps 746 mmHg 64%
16:00 +15°C° 0.2 mm 4 mps 746 mmHg 68%
17:00 +14°C° 0.5 mm 3 mps 746 mmHg 74%
18:00 +13°C° 0.5 mm 3 mps 747 mmHg 80%
19:00 +12°C° 0.5 mm 3 mps 747 mmHg 86%
20:00 +11°C° 0.1 mm 3 mps 747 mmHg 89%
21:00 +10°C° 0.1 mm 3 mps 747 mmHg 92%
22:00 +9°C° 0.1 mm 2 mps 747 mmHg 94%
23:00 +9°C° 0 mm 3 mps 747 mmHg 95%

18 May, Tuesday

Time Temperature Precipitation Wind Pressure Humidity
00:00 +9°C° 0 mm 3 mps 747 mmHg 95%
01:00 +9°C° 0 mm 3 mps 747 mmHg 96%
02:00 +8°C° 0 mm 3 mps 747 mmHg 96%
03:00 +7°C° 0 mm 3 mps 748 mmHg 97%
04:00 +7°C° 0 mm 2 mps 748 mmHg 98%
05:00 +8°C° 0 mm 3 mps 748 mmHg 96%
06:00 +9°C° 0 mm 3 mps 748 mmHg 94%
07:00 +10°C° 0 mm 4 mps 748 mmHg 92%
08:00 +10°C° 0.3 mm 4 mps 748 mmHg 90%
09:00 +11°C° 0.3 mm 4 mps 748 mmHg 88%
10:00 +12°C° 0.3 mm 5 mps 749 mmHg 86%
11:00 +12°C° 0.5 mm 5 mps 749 mmHg 83%
12:00 +13°C° 0.5 mm 6 mps 749 mmHg 79%
13:00 +13°C° 0.5 mm 6 mps 749 mmHg 76%
14:00 +13°C° 0.3 mm 5 mps 750 mmHg 75%
15:00 +13°C° 0.3 mm 5 mps 750 mmHg 75%
16:00 +13°C° 0.3 mm 5 mps 750 mmHg 74%
17:00 +13°C° 0.3 mm 4 mps 750 mmHg 78%
18:00 +12°C° 0.3 mm 4 mps 750 mmHg 82%
19:00 +11°C° 0.3 mm 3 mps 751 mmHg 87%
20:00 +10°C° 0 mm 3 mps 751 mmHg 89%
21:00 +9°C° 0 mm 3 mps 751 mmHg 92%
22:00 +8°C° 0 mm 2 mps 752 mmHg 95%
23:00 +7°C° 0 mm 3 mps 752 mmHg 95%

19 May, Wednesday

Time Temperature Precipitation Wind Pressure Humidity
00:00 +7°C° 0 mm 3 mps 752 mmHg 95%
01:00 +7°C° 0 mm 3 mps 752 mmHg 95%
02:00 +5°C° 0 mm 3 mps 753 mmHg 95%
03:00 +5°C° 0 mm 3 mps 753 mmHg 96%
04:00 +5°C° 0 mm 3 mps 753 mmHg 96%
05:00 +6°C° 0 mm 4 mps 753 mmHg 92%
06:00 +7°C° 0 mm 4 mps 754 mmHg 88%
07:00 +8°C° 0 mm 5 mps 754 mmHg 84%
08:00 +9°C° 0 mm 5 mps 754 mmHg 74%
09:00 +12°C° 0 mm 5 mps 754 mmHg 63%
10:00 +13°C° 0 mm 6 mps 754 mmHg 53%
11:00 +13°C° 0 mm 5 mps 754 mmHg 51%
12:00 +14°C° 0 mm 5 mps 754 mmHg 50%
13:00 +14°C° 0 mm 4 mps 754 mmHg 49%
14:00 +14°C° 0.1 mm 4 mps 754 mmHg 51%
15:00 +14°C° 0.1 mm 4 mps 753 mmHg 53%
16:00 +15°C° 0.1 mm 4 mps 753 mmHg 55%
17:00 +13°C° 0.2 mm 4 mps 754 mmHg 62%
18:00 +12°C° 0.2 mm 3 mps 754 mmHg 70%
19:00 +11°C° 0.2 mm 3 mps 754 mmHg 77%
20:00 +10°C° 0.1 mm 3 mps 754 mmHg 83%
21:00 +9°C° 0.1 mm 3 mps 754 mmHg 88%
22:00 +8°C° 0.1 mm 3 mps 754 mmHg 93%
23:00 +8°C° 0 mm 3 mps 754 mmHg 94%

20 May, Thursday

Time Temperature Precipitation Wind Pressure Humidity
00:00 +7°C° 0 mm 3 mps 754 mmHg 95%
01:00 +7°C° 0 mm 3 mps 754 mmHg 97%
02:00 +7°C° 0 mm 3 mps 755 mmHg 97%
03:00 +7°C° 0 mm 3 mps 755 mmHg 97%
04:00 +5°C° 0 mm 3 mps 755 mmHg 97%
05:00 +6°C° 0 mm 4 mps 755 mmHg 94%
06:00 +7°C° 0 mm 4 mps 755 mmHg 90%
07:00 +8°C° 0 mm 5 mps 755 mmHg 86%
08:00 +9°C° 0.2 mm 5 mps 755 mmHg 80%
09:00 +10°C° 0.2 mm 5 mps 755 mmHg 73%
10:00 +12°C° 0.2 mm 5 mps 755 mmHg 67%
11:00 +13°C° 0.2 mm 5 mps 754 mmHg 64%
12:00 +13°C° 0.2 mm 5 mps 754 mmHg 61%
13:00 +14°C° 0.2 mm 5 mps 754 mmHg 57%
14:00 +15°C° 0.1 mm 5 mps 753 mmHg 56%
15:00 +15°C° 0.1 mm 5 mps 753 mmHg 54%
16:00 +16°C° 0.1 mm 5 mps 753 mmHg 53%
17:00 +14°C° 0.1 mm 4 mps 752 mmHg 59%
18:00 +13°C° 0.1 mm 4 mps 752 mmHg 66%
19:00 +12°C° 0.1 mm 3 mps 752 mmHg 73%
20:00 +12°C° 0.2 mm 4 mps 751 mmHg 78%
21:00 +11°C° 0.2 mm 4 mps 751 mmHg 82%
22:00 +10°C° 0.2 mm 4 mps 751 mmHg 87%
23:00 +10°C° 0 mm 4 mps 751 mmHg 88%
Show more

We Need Your Consent

Meteoprog and our Service Providers may store and access personal data such as cookies, device identifiers or other similar technologies on your device and process such data to personalise content and ads, as well as provide social media features and to analyse the traffic.

  • Store and/or access information on your device

    Cookies, device identifiers or other information can be stored or accessed on your device for the purposes indicated above.

  • Personalised ads and content, ad and content measurement, audience insights, and products development

    Ads and content can be personalised based on a profile. More data can be added to better personalise ads and content. Ad and content performance can be measured. Insights about the audience who saw the ads and content can be derived. Such data can be used to develop or improve user’s experience, systems and software.

By clicking ‘I Agree’ you will allow the use of indicated cookies, device identifiers, web beacons or other similar technologies. Your settings can be changed in the browser on your device.

For certain purposes, legitimate interests may be relied on, rather than consent. You can read more about this in our Privacy and Cookie Policy.